Flag for U.S.A. Weather past 2 weeks in Sitka, Alaska, U.S.A.

Now
62 °F

Sunny.


Feels Like: 62 °F
Forecast: 52 / 56 °F
Wind: 5 mph from Southwest

Location: Sitka Airport

Current Time: Sep 3, 2015 at 6:08:19 PM

Latest Report: Sep 3, 2015 at 4:53 PM


Visibility: 10 mi

Pressure: 30.09 "Hg

Humidity: 73%

Dew point: 53 °F

Location of SitkaLocation

Historic Weather in Sitka — Graph

°F

Sitka temperature yesterday

Maximum temperature yesterday: 66 °F (at 12:53 PM)
Minimum temperature yesterday: 44 °F (at 1:53 AM)
Average temperature yesterday: 56 °F

Past Weeks' High & Low Weather Summary

 TemperatureHumidityPressure
High67 °F (Aug 25, 4:53 PM)100% (Aug 19, 5:53 PM)30.13 "Hg (Aug 19, 5:53 PM)
Low44 °F (Sep 1, 1:53 AM)37% (Sep 2, 4:53 PM)28.97 "Hg (Aug 30, 11:53 AM)
Average54 °F86%29.73 "Hg
* Reported Aug 19 4:53 PM — Sep 3 4:53 PM, Sitka, Weather by CustomWeather, © 2015

Note: Actual official high and low records may vary slightly from our data, if they occured in-between our weather recording intervals... More about our weather records

Advertising

Sitka weather history for previous 24 hours

 ConditionsComfort  
Time TempWeatherWind HumidityBarometerVisibility
4:53 PM
Thu, Sep 3
62 °FSunny.5 mph73%30.09 "Hg10 mi
3:53 PM60 °FSunny.No wind67%30.09 "Hg10 mi
2:53 PM60 °FSunny.No wind62%30.09 "Hg10 mi
1:53 PM61 °FSunny.9 mph60%30.09 "Hg10 mi
12:53 PM61 °FSunny.7 mph56%30.08 "Hg10 mi
11:53 AM62 °FSunny.6 mph62%30.07 "Hg10 mi
10:53 AM57 °FSunny.5 mph67%30.07 "Hg10 mi
9:53 AM55 °FSunny.No wind69%30.05 "Hg10 mi
8:53 AM54 °FSunny.No wind69%30.05 "Hg10 mi
7:53 AM52 °FSunny.3 mph77%30.05 "Hg10 mi
6:53 AM48 °FClear.3 mph80%30.03 "Hg10 mi
5:53 AM47 °FClear.No wind83%30.03 "Hg10 mi
4:53 AM48 °FClear.No wind80%30.02 "Hg10 mi
3:53 AM47 °FClear.No wind83%30.01 "Hg10 mi
2:53 AM49 °FClear.No wind74%29.99 "Hg10 mi
1:53 AM48 °FClear.No wind83%29.99 "Hg10 mi
12:53 AM49 °FClear.No wind80%29.98 "Hg10 mi
11:53 PM
Wed, Sep 2
51 °FClear.No wind77%29.97 "Hg10 mi
10:53 PM52 °FClear.No wind69%29.96 "Hg10 mi
9:53 PM53 °FClear.6 mph74%29.95 "Hg10 mi
8:53 PM56 °FSunny.5 mph60%29.94 "Hg10 mi
7:53 PM60 °FSunny.7 mph42%29.92 "Hg10 mi
6:53 PM63 °FSunny.6 mph38%29.91 "Hg10 mi
Weather by CustomWeather, © 2015

See weather overviewHow to use our weather pages